Location: Chuathbaluk
(61.5726°N, 159.2454°W)
Time: 23:46:29
(UTC+00:00)

Transit 4A - Pass Details

Date: 05 December 2020
Orbit: 864 x 980 km, 66.8° (Epoch: 20 January)

Event Time Altitude Azimuth Distance (km) Brightness Sun altitude
Rises 00:20:13 0° 305° (NW) 3,695 10.9 3.0°
Reaches altitude 10° 00:22:49 10° 305° (NW) 2,742 10.3 2.9°
Maximum altitude 00:29:15 84° 220° (SW) 985 8.3 2.5°
Drops below altitude 10° 00:35:34 10° 132° (SE) 2,683 10.5 2.2°
Sets 00:38:04 0° 132° (SE) 3,611 11.1 2.0°
